AEST,Max TemperatureF,Mean TemperatureF,Min TemperatureF,Max Dew PointF,MeanDew PointF,Min DewpointF,Max Humidity, Mean Humidity, Min Humidity, Max Sea Level PressureIn, Mean Sea Level PressureIn, Min Sea Level PressureIn, Max VisibilityMiles, Mean VisibilityMiles, Min VisibilityMiles, Max Wind SpeedMPH, Mean Wind SpeedMPH, Max Gust SpeedMPH,PrecipitationIn, CloudCover, Events, WindDirDegrees
2013-12-1,89,82,76,78,74,68,100,76,44,29.97,29.88,29.83,19,7,4,20,8,,0.12,3,Rain,149
2013-12-2,84,80,75,75,70,64,94,75,53,29.98,29.92,29.89,16,7,4,24,12,31,0.01,4,Rain,157
2013-12-3,86,79,72,69,65,63,78,61,39,29.94,29.88,29.83,19,7,6,18,12,,0.00,2,,153
2013-12-4,86,79,72,70,66,63,83,62,39,29.88,29.82,29.77,19,7,6,18,9,,0.00,1,,149
2013-12-5,84,75,66,68,66,63,100,70,42,29.83,29.77,29.71,19,8,6,10,5,,0.00,1,,357
2013-12-6,86,77,68,73,69,63,89,72,46,29.89,29.80,29.74,19,7,6,10,4,,0.00,2,,47
2013-12-7,88,82,75,75,71,68,89,69,44,29.96,29.90,29.86,19,7,4,21,11,,0.00,2,Rain,151
2013-12-8,89,82,74,75,71,70,94,73,46,29.93,29.90,29.86,19,6,4,20,12,,0.28,4,Rain,155
2013-12-9,88,80,73,72,68,64,89,66,38,29.90,29.84,29.77,19,7,6,21,12,,0.01,1,,155
2013-12-10,86,77,68,68,66,63,88,65,40,29.85,29.79,29.74,19,7,6,14,9,,0.00,1,,130
2013-12-11,86,77,68,72,69,66,94,71,45,29.85,29.77,29.71,19,7,6,12,5,,0.00,2,,30
2013-12-12,84,80,75,75,72,70,94,75,59,29.81,29.75,29.71,19,7,3,10,3,,0.08,6,Rain,28
2013-12-13,84,79,74,75,73,70,94,80,55,29.84,29.78,29.71,19,7,6,13,7,,0.04,6,Rain,114
2013-12-14,87,81,75,79,74,70,100,79,51,29.87,29.82,29.77,19,6,4,15,5,,0.08,5,Rain,128
2013-12-15,89,82,75,73,71,63,83,69,43,29.89,29.84,29.80,19,7,6,20,10,,0.00,4,Rain,156
2013-12-16,87,80,73,75,72,69,94,83,54,29.91,29.85,29.80,19,6,3,21,11,,0.31,5,Rain,167
2013-12-17,87,80,72,72,68,64,89,64,41,29.92,29.86,29.80,19,7,6,29,17,38,0.00,3,Rain,149
2013-12-18,87,82,76,72,68,64,78,62,38,29.94,29.88,29.83,19,7,6,28,17,,0.02,2,Rain,145
2013-12-19,87,80,73,73,70,67,94,73,43,29.95,29.89,29.83,19,7,4,24,15,29,0.43,5,Rain,154
2013-12-20,86,80,73,73,69,64,100,72,42,29.96,29.90,29.86,19,6,3,23,13,30,0.01,5,Rain,154
2013-12-21,88,80,72,70,68,66,83,66,43,29.93,29.88,29.83,19,7,6,21,12,,0.01,3,Rain,154
2013-12-22,87,80,72,72,66,59,89,64,31,29.92,29.87,29.83,19,7,4,21,11,,0.08,3,Rain,148
2013-12-23,83,77,71,75,70,67,100,78,51,29.93,29.88,29.83,16,7,4,14,6,,0.08,4,Rain,164
2013-12-24,89,78,68,70,66,61,94,67,32,29.93,29.88,29.83,19,7,6,17,7,,0.00,1,,141
2013-12-25,86,78,70,74,70,66,94,75,52,29.93,29.87,29.80,19,6,2,15,8,,0.00,4,Rain,131
2013-12-26,89,82,74,73,69,66,94,68,42,29.88,29.83,29.77,19,7,6,20,8,,0.00,2,Rain,135
2013-12-27,87,76,66,70,67,57,100,70,32,29.85,29.79,29.71,19,7,6,13,4,,0.00,2,,15
2013-12-28,87,77,67,70,68,63,100,69,36,29.85,29.80,29.74,19,7,6,12,5,,0.00,3,,55
2013-12-29,87,79,71,72,70,67,94,71,45,29.88,29.82,29.77,19,7,6,12,4,,0.00,2,,12
2013-12-30,87,77,67,73,71,66,100,76,44,29.88,29.83,29.77,19,7,6,13,4,,0.00,1,,340
2013-12-31,87,78,70,73,71,66,100,75,48,29.86,29.80,29.74,19,8,6,12,4,,0.00,3,,331